Home   Weather   Windsor   Past weeks

Flag for Canada Past Weather in Windsor, Ontario, Canada — Yesterday and Last 2 Weeks

50 °F

Partly sunny.

Feels Like: 44 °F
Forecast: 43 / 51 °F
Wind: 17 mph from Northwest

Location: Windsor Weather Station

Current Time: Oct 24, 2016 at 12:05:45 PM

Latest Report: Oct 24, 2016 at 11:00 AM

Visibility: 15 mi

Pressure: 30.24 "Hg

Humidity: 62%

Dew Point: 37 °F

Location of WindsorLocation

Past Weather in Windsor — Graph


Windsor Temperature Yesterday

Maximum temperature yesterday: 64 °F (at 4:00 PM)
Minimum temperature yesterday: 43 °F (at 6:00 AM)
Average temperature yesterday: 53 °F

High & Low Weather Summary for the Past Weeks

High81 °F (Oct 17, 3:00 PM)100% (Oct 17, 1:00 AM)30.48 "Hg (Oct 17, 1:00 AM)
Low39 °F (Oct 10, 5:00 AM)43% (Oct 19, 4:00 PM)29.61 "Hg (Oct 18, 7:00 AM)
Average57 °F76%30.07 "Hg
* Reported Oct 9 11:00 AM — Oct 24 11:00 AM, Windsor, Weather by CustomWeather, © 2016

Note: Actual official high and low records may vary slightly from our data, if they occured in-between our weather recording intervals... More about our weather records


Windsor Weather History for the Previous 24 Hours

Scroll right to see more
Time TempWeatherWind HumidityBarometerVisibility
11:00 AM
Mon, Oct 24
50 °FPartly sunny.17 mph62%30.24 "Hg15 mi
10:00 AM50 °FBroken clouds.16 mph62%30.23 "Hg15 mi
9:00 AM48 °FPassing clouds.13 mph71%30.20 "Hg15 mi
8:00 AM46 °FPassing clouds.14 mph71%30.17 "Hg15 mi
7:00 AM46 °FPassing clouds.12 mph71%30.15 "Hg15 mi
6:00 AM50 °FPassing clouds.12 mph67%30.12 "Hg15 mi
5:00 AM50 °FPassing clouds.14 mph67%30.09 "Hg15 mi
4:00 AM50 °FPassing clouds.17 mph67%30.07 "Hg15 mi
3:00 AM50 °FPassing clouds.7 mph82%30.04 "Hg15 mi
2:00 AM50 °FPassing clouds.8 mph82%30.00 "Hg15 mi
1:00 AM52 °FPassing clouds.9 mph77%29.97 "Hg15 mi
12:00 AM54 °FPassing clouds.15 mph77%29.93 "Hg15 mi
11:00 PM
Sun, Oct 23
54 °FPassing clouds.9 mph82%29.89 "Hg15 mi
10:00 PM55 °FPassing clouds.12 mph88%29.84 "Hg15 mi
9:00 PM54 °FPassing clouds.6 mph88%29.79 "Hg15 mi
8:00 PM57 °FPartly cloudy.3 mph77%29.79 "Hg15 mi
7:00 PM61 °FMostly cloudy.6 mph68%29.80 "Hg15 mi
6:00 PM61 °FPartly sunny.9 mph68%29.80 "Hg15 mi
5:00 PM64 °FScattered clouds.14 mph56%29.83 "Hg15 mi
4:00 PM64 °FPassing clouds.10 mph60%29.85 "Hg15 mi
3:00 PM63 °FPassing clouds.8 mph59%29.89 "Hg15 mi
2:00 PM61 °FPassing clouds.13 mph55%29.92 "Hg15 mi
1:00 PM59 °FSunny.12 mph59%29.94 "Hg15 mi
12:00 PM57 °FSunny.8 mph67%29.96 "Hg12 mi
Weather by CustomWeather, © 2016

See weather overviewHow to use our weather pages